GW1054 Weather Reports


time (UTC)temp
F
wind
direction
speed
knots
gust
knots
rain 1hr
in
rain 24hr
in
rain mn
in
humidity
%
barometer
mb
20260506014547 49 308 0.9 2.6 0.00 0.00 0.00 50 1009.3
20260506013046 49 321 0.0 0.9 0.00 0.00 0.00 51 1009.0
20260506011546 49 0 0.0 0.0 0.00 0.00 0.00 51 1008.9
20260506010045 50 0 0.0 0.0 0.00 0.00 0.00 49 1008.8
20260506004541 51 0 0.0 0.9 0.00 0.00 0.00 48 1008.6
20260506003048 52 0 0.0 0.9 0.00 0.00 0.00 45 1008.5
20260506001547 53 330 0.9 1.7 0.00 0.00 0.00 43 1008.6
20260506000047 54 330 0.9 3.5 0.00 0.00 0.00 42 1008.5
20260505234555 53 325 2.6 6.1 0.00 0.00 0.00 41 1008.4
20260505233046 54 325 5.2 10.4 0.00 0.00 0.00 37 1008.6
20260505231548 54 313 7.0 10.4 0.00 0.00 0.00 39 1008.6
20260505230048 55 338 3.5 7.8 0.00 0.00 0.00 41 1008.6
20260505224547 55 321 1.7 5.2 0.00 0.00 0.00 38 1008.8
20260505223122 55 339 7.8 10.4 0.00 0.00 0.00 37 1008.9
20260505221549 56 300 1.7 5.2 0.00 0.00 0.00 40 1008.8
20260505220045 56 323 2.6 5.2 0.00 0.00 0.00 39 1008.8
20260505214553 55 319 5.2 9.6 0.00 0.00 0.00 37 1008.9
20260505213048 56 314 3.5 10.4 0.00 0.00 0.00 37 1008.8
20260505211544 57 311 4.3 9.6 0.00 0.00 0.00 37 1008.8
20260505210046 56 346 5.2 11.3 0.00 0.00 0.00 37 1008.9
20260505204549 56 315 7.0 11.3 0.00 0.00 0.00 36 1008.8
20260505203050 55 318 2.6 6.1 0.00 0.00 0.00 38 1009.0
20260505201551 55 315 7.8 13.9 0.00 0.00 0.00 34 1009.2
20260505200050 56 345 4.3 13.9 0.00 0.00 0.00 33 1009.0
20260505194605 57 325 1.7 10.4 0.00 0.00 0.00 35 1009.1
20260505193043 57 324 4.3 11.3 0.00 0.00 0.00 33 1009.2
20260505191546 57 323 7.8 13.9 0.00 0.00 0.00 32 1009.3
20260505190045 57 348 4.3 11.3 0.00 0.00 0.00 36 1009.5
20260505184541 56 14 6.1 11.3 0.00 0.00 0.00 35 1009.3
20260505183047 56 322 7.0 10.4 0.00 0.00 0.00 33 1009.4
20260505181549 56 333 6.1 12.2 0.00 0.00 0.00 30 1009.2
20260505180044 56 204 6.1 11.3 0.00 0.00 0.00 31 1009.2
20260505174556 56 317 5.2 10.4 0.00 0.00 0.00 34 1008.9
20260505173048 55 318 5.2 9.6 0.00 0.00 0.00 37 1008.9
20260505171551 54 346 7.0 11.3 0.00 0.00 0.00 35 1008.9
20260505170047 54 314 7.8 11.3 0.00 0.00 0.00 33 1009.1
20260505164610 54 327 5.2 9.6 0.00 0.00 0.00 37 1009.0
20260505163051 53 321 2.6 9.6 0.00 0.00 0.00 41 1008.7
20260505161545 53 326 7.8 13.0 0.00 0.00 0.00 37 1008.9
20260505153047 52 307 3.5 7.0 0.00 0.00 0.00 41 1008.7
20260505151546 51 323 4.3 11.3 0.00 0.00 0.00 41 1008.9
20260505130107 47 335 1.7 3.5 0.00 0.00 0.00 50 1009.0
20260505124553 47 329 1.7 3.5 0.00 0.00 0.00 53 1008.7
20260505123047 47 317 0.9 1.7 0.00 0.00 0.00 55 1008.9
20260505121545 46 327 0.0 0.9 0.00 0.00 0.00 59 1009.1
20260505120105 46 0 0.0 0.9 0.00 0.00 0.00 61 1008.8
20260505114547 46 327 0.9 1.7 0.00 0.00 0.00 60 1009.0
20260505113052 46 0 0.9 3.5 0.00 0.00 0.00 58 1008.0
20260505111552 46 322 0.0 1.7 0.00 0.00 0.00 59 1008.1
20260505101547 47 0 0.9 3.5 0.00 0.00 0.00 54 1006.9
20260505100048 47 317 1.7 4.3 0.00 0.00 0.00 53 1006.9
20260505094548 47 307 0.0 2.6 0.00 0.00 0.00 55 1006.4
20260505093046 48 265 0.9 5.2 0.00 0.00 0.00 53 1006.5
20260505091549 48 312 0.9 7.0 0.00 0.00 0.00 52 1006.6
20260505090050 48 307 2.6 7.0 0.00 0.00 0.00 55 1006.7
20260505084545 48 321 2.6 6.1 0.00 0.00 0.00 55 1006.0
20260505083048 49 64 2.6 7.8 0.00 0.00 0.00 52 1005.8
20260505081552 50 313 1.7 7.8 0.00 0.00 0.00 52 1005.1
20260505080049 50 115 0.9 7.0 0.00 0.00 0.00 55 1004.9
20260505074542 51 310 0.9 3.5 0.00 0.00 0.00 56 1004.7
20260505073051 52 324 0.9 7.0 0.00 0.00 0.00 54 1004.2
20260505071553 52 63 1.7 8.7 0.00 0.00 0.00 54 1003.8
20260505070047 50 322 3.5 5.2 0.00 0.00 0.00 59 1003.7
20260505064546 51 321 2.6 4.3 0.00 0.00 0.00 56 1003.6
20260505063044 52 325 0.0 0.9 0.00 0.00 0.00 53 1003.3
20260505061542 53 325 1.7 3.5 0.00 0.00 0.00 51 1003.4
20260505060044 54 325 2.6 4.3 0.00 0.00 0.00 49 1003.2
20260505054552 55 313 3.5 7.0 0.00 0.00 0.00 47 1002.8
20260505053057 56 325 3.5 5.2 0.00 0.00 0.00 45 1002.8
20260505051546 57 321 2.6 8.7 0.00 0.00 0.00 45 1002.7
20260505041546 58 338 4.3 9.6 0.00 0.00 0.00 41 1002.1
20260505040050 59 317 6.1 10.4 0.00 0.00 0.00 40 1001.9
20260505034543 60 340 7.0 12.2 0.00 0.00 0.00 39 1001.7
20260505033045 60 349 6.1 8.7 0.00 0.00 0.00 43 1001.6
20260505031548 61 325 2.6 4.3 0.00 0.00 0.00 46 1001.4
20260505030048 63 320 7.0 12.2 0.00 0.00 0.00 42 1001.3
20260505024546 64 316 6.1 8.7 0.00 0.00 0.00 42 1001.3
20260505023051 65 331 4.3 9.6 0.00 0.00 0.00 42 1000.5
20260505021543 67 350 10.4 16.5 0.00 0.00 0.00 41 1000.3
20260505020042 67 314 6.1 11.3 0.00 0.00 0.00 48 1000.3